Regional Weather Roundup
Issued by NWS

Home | Current Version | Previous Version | Text Only | Print | Product List | Glossary Off
Versions: 1 2 3 4 5 6 7 8 9 10 11 12 13 14 15 16 17 18 19 20 21 22 23 24 25 26 27 28 29 30 31 32 33 34 35 36 37 38 39 40 41 42 43 44 45 46 47 48 49 50

907
ASUS43 KMPX 230710
RWRMN
WEATHER ROUNDUP FOR MINNESOTA
NATIONAL WEATHER SERVICE TWIN CITIES/CHANHASSEN MN
200 AM CDT SAT JUL 23 2016


NOTE: "FAIR" INDICATES FEW OR NO CLOUDS BELOW 12,000 FEET WITH NO
SIGNIFICANT WEATHER AND/OR OBSTRUCTIONS TO VISIBILITY. N/A MEANS
CURRENT SKY AND/OR WEATHER CONDITIONS ARE NOT AVAILABLE.

MNZ060>063-068>070-230800-
   Twin Cities Metro

CITY           SKY/WX    TMP DP  RH WIND       PRES   REMARKS
TWIN CITIES    MOCLDY    79  67  66 E6        29.97F
ST PAUL        PTCLDY    73  68  84 SE3       29.97F
CRYSTAL        CLOUDY    74  64  71 CALM      29.97S
BLAINE         CLOUDY    72  64  78 CALM      29.97F
LAKEVILLE      PTCLDY    70  70 100 CALM      29.98S
EDEN PRAIRIE   PTCLDY    77  67  71 SE5       29.96F
LAKEVILLE      PTCLDY    70  70 100 CALM      29.98S
SOUTH ST PAUL  PTCLDY    75  67  77 CALM      29.97S
LAKE ELMO      FAIR      70  68  94 CALM      29.99F
$$
MNZ001>005-007-008-013>017-022>024-027-028-230800-
   Northwest Minnesota

CITY           SKY/WX    TMP DP  RH WIND       PRES   REMARKS
BEMIDJI        CLOUDY    64  63  94 CALM      30.01F
HALLOCK        CLOUDY    66  63  88 E9        29.95F
ROSEAU         CLOUDY    63  57  82 CALM      30.01S
WARROAD        MOCLDY    63  57  82 CALM      30.01S
THIEF RVR FALL CLOUDY    68  62  81 E8        29.99F
CROOKSTON      CLOUDY    72  63  73 E7        29.97F
FOSSTON        PTCLDY    66  63  88 E3        30.01S
DETROIT LAKES  MOCLDY    73  63  68 E3        30.01S
MOORHEAD       CLOUDY    73  66  78 E7        29.95F
PARK RAPIDS    MOCLDY    72  64  76 CALM      30.01F
MAHNOMEN       FAIR      67  65  92 E6        29.99F
$$
MNZ006-009>011-018-025>026-230800-
   North Central Minnesota

CITY           SKY/WX    TMP DP  RH WIND       PRES   REMARKS
BAUDETTE       CLOUDY    62  59  90 CALM      30.01S
FLAG ISLAND    CLOUDY    70  63  78 CALM      30.00R
INTL FALLS     PTCLDY    57  55  93 CALM      30.01S
WASKISH        CLOUDY    61  59  94 CALM      30.00F
BIG FORK       CLOUDY    57  57 100 CALM      30.02S
LONGVILLE      CLOUDY    64  63  94 CALM      30.01F
GRAND RAPIDS   CLOUDY    62  61  96 CALM      30.03F
CRANE LAKE     PTCLDY    55  54  94 CALM      30.02F
ORR            MOCLDY    57  54  88 CALM      30.00S
COOK           PTCLDY    59  57  94 CALM      30.02F
WALKER         FAIR      62  61  96 CALM      30.02S
$$
MNZ012-019>021-037-230800-
   Northeast Minnesota

CITY           SKY/WX    TMP DP  RH WIND       PRES   REMARKS
DULUTH         PTCLDY    68  61  78 N3        30.01F
ELY            PTCLDY    57  54  88 CALM      30.02F
HIBBING        CLOUDY    57  57 100 CALM      30.02F
EVELETH        MOCLDY    59  58  97 CALM      30.03F
DULUTH HARBOR  CLOUDY    73  64  73 E3        29.98F
TWO HARBORS    CLOUDY    72  61  68 NW3       29.98F
SILVER BAY     PTCLDY    61  57  88 CALM      29.99S
GRAND MARAIS     N/A     74  55  51 N12       29.95F
G MARAIS ARPRT CLEAR     63  54  72 CALM      30.03F
$$
MNZ029>031-032-039>041-046>048-054>057-064-230800-
   West Central Minnesota

CITY           SKY/WX    TMP DP  RH WIND       PRES   REMARKS
FERGUS FALLS   CLOUDY    73  68  83 E6        29.98S
WHEATON        MOCLDY    73  70  88 NE5       29.96F
MORRIS         CLOUDY    72  70  94 NE7       29.94F
ALEXANDRIA     MOCLDY    72  68  87 NE3       30.00F
ELBOW LAKE     FAIR      74  71  88 SE5       29.97F
WADENA         PTCLDY    70  64  83 E3        30.00S
GLENWOOD       CLOUDY    72  66  83 NE6       29.99F
APPLETON       CLOUDY    73  66  78 E3        29.93F
BENSON         PTCLDY    73  64  73 CALM      29.94F
ORTONVILLE     MOCLDY    73  70  88 E3        29.93F
MADISON        PTCLDY    73  70  88 CALM      29.94F
WILLMAR        FAIR      73  66  78 E7        29.96F
$$
MNZ033>034-036-042>043-049>051-058-059-230800-
   Central Minnesota

CITY           SKY/WX    TMP DP  RH WIND       PRES   REMARKS
ST CLOUD       CLOUDY    69  68  96 CALM      29.98S
SAUK CENTRE    FAIR      69  67  95 CALM      29.98F
PAYNESVILLE    MOCLDY    70  70  98 CALM      29.97F
AITKIN           N/A     64  61  88 CALM      30.00S HAZE
PINE RIVER     PTCLDY    64  64 100 CALM      30.04F
BRAINERD       CLOUDY    71  67  87 CALM      30.00F
STAPLES        CLOUDY    70  64  83 CALM      30.00F
LONG PRAIRIE   FAIR      70  68  94 CALM      30.00F
LITTLE FALLS   MOCLDY    70  68  94 CALM      29.98F
LITCHFIELD     PTCLDY    72  70  94 E3        29.97F
BUFFALO        PTCLDY    70  64  82 CALM      29.99S
MAPLE LAKE     PTCLDY    71  68  91 CALM      29.99S
HUTCHINSON     CLOUDY    74  68  82 E3        29.98F
$$
MNZ037-044-045-052-053-230800-
   East Central Minnesota

CITY           SKY/WX    TMP DP  RH WIND       PRES   REMARKS
PRINCETON      CLOUDY    70  66  88 CALM      29.99S
MORA             N/A     70  68  94 CALM      30.01S FOG
CAMBRIDGE      CLOUDY    73  64  73 CALM      29.97F
RUSH CITY      CLOUDY    69  67  93 CALM      29.99F
MOOSE LAKE     PTCLDY    64  63  94 CALM      29.99S
HINCKLEY       FAIR      68  68 100 CALM      29.99S
CLOQUET        MOCLDY    66  57  72 NW3       30.01F
MCGREGOR       PTCLDY    68  64  88 CALM      30.02S
$$
MNZ071>073-080-081-089-090-097-098-230800-
   Southwest Minnesota

CITY           SKY/WX    TMP DP  RH WIND       PRES   REMARKS
MONTEVIDEO     CLOUDY    73  70  88 CALM      29.95F
GRANITE FALLS  PTCLDY    76  70  81 E5        29.95F
CANBY          PTCLDY    72  69  90 CALM      29.95F
MARSHALL       CLOUDY    77  71  82 SE8       29.93F
REDWOOD FALLS  PTCLDY    75  69  81 E3        29.94F
OLIVIA         PTCLDY    73  66  78 E3        29.94F
PIPESTONE      CLOUDY    79  75  89 SE6       29.95F
WINDOM         CLOUDY    79  75  89 SE5       29.95F
WORTHINGTON    MOCLDY    78  77  96 E6        29.96F
JACKSON        CLOUDY    79  75  89 E7        29.97F FOG
TRACY          CLOUDY    74  72  92 CALM      29.95F
SLAYTON        CLOUDY    77  76  97 E7        29.96F FOG
$$
MNZ065>067-074>077-082>085-091>093-230800-
   South Central Minnesota

CITY           SKY/WX    TMP DP  RH WIND       PRES   REMARKS
MANKATO        PTCLDY    77  72  83 E8        29.96F
NEW ULM        CLOUDY    77  73  88 CALM      29.95F
ST JAMES       PTCLDY    73  72  94 E5        29.95F
FAIRMONT       CLOUDY    79  61  53 E7        29.95S
GLENCOE        PTCLDY    74  69  86 E3        29.95F
FARIBAULT      PTCLDY    73  72  94 CALM      29.98S
OWATONNA       MOCLDY    77  73  88 CALM      29.97F
WASECA         PTCLDY    77  75  94 SE6       29.98S
ALBERT LEA     PTCLDY    79  77  94 E3        29.98S
$$
MNZ078>079-086>088-094>096-230800-
   Southeast Minnesota

CITY           SKY/WX    TMP DP  RH WIND       PRES   REMARKS
ROCHESTER      PTCLDY    76  76 100 SE5       30.00F
RED WING       PTCLDY    68  66  94 CALM      29.97S
STANTON        PTCLDY    70  66  88 CALM      29.97R
DODGE CENTER   PTCLDY    75  73  94 S7        29.99F FOG
WINONA         PTCLDY    73  72  94 NW3       29.98R
AUSTIN         CLOUDY    75  73  94 CALM      29.99R
PRESTON        PTCLDY    76  73  93 SE3       30.01S
$$
ABBREVIATIONS USED IN REMARKS
   TC - TEMPERATURES IN CELSIUS
  WCI - WIND CHILL INDEX
   HX - HEAT INDEX
  VSB - VISIBILITY
$$




USA.gov is the U.S. government's official web portal to all federal, state and local government web resources and services.